Location: Newark
(54.6833°N, 25.2833°E)
Time: 10:40:29
(UTC+00:00)

Altair - Pass Details

Date: 15 November 2019
Orbit: 1502 x 1682 km, 47.2° (Epoch: 12 December)

Event Time Altitude Azimuth Distance (km) Brightness Sun altitude
Rises 01:39:20 0° 203° (SSW) 4,630 - -35.4°
Reaches altitude 10° 01:42:57 10° 192° (SSW) 3,647 - -34.9°
Exits shadow 01:46:17 20° 173° (S) 2,937 8.8 -34.5°
Maximum altitude 01:50:03 26° 140° (SE) 2,612 8.8 -34.0°
Drops below altitude 10° 01:57:13 10° 89° (E) 3,691 10.3 -33.0°
Sets 02:00:53 0° 77° (ENE) 4,696 11.2 -32.5°
